Satellite: FAST1-2
Catalog number: 37227
Epoch time:      10345.24707404
Element set:    0025
Inclination:      071.9728 deg
RA of node:       093.5629 deg
Eccentricity:    0.0019225
Arg of perigee:   270.0891 deg
Mean anomaly:     089.8078 deg
Mean motion:   14.76374882 rev/day
Decay rate:        8.9e-07 rev/day^2
Epoch rev:           00312
Checksum:              310

/EX
SB KEPS @ AMSAT  $ORB10350.W
Orbital Elements  10350.WEATHER

HR AMSAT ORBITAL ELEMENTS FOR WEATHER SATELLITES
FROM WA5QGD FORT WORTH,TX December 16, 2010
Send Subscribe/unsubscribe to KEPS at http://www.amsat.org/mailman/listinfo/kep
BID: ORB10350.W
TO ALL RADIO AMATEURS BT

Satellite: NOAA-10
Catalog number: 16969
Epoch time:      10350.12207525
Element set:     318
Inclination:      098.6401 deg
RA of node:       017.2198 deg
Eccentricity:    0.0012889
Arg of perigee:   043.2366 deg
Mean anomaly:     316.9833 deg
Mean motion:   14.27437568 rev/day
Decay rate:        8.0e-08 rev/day^2
Epoch rev:           26153
Checksum:              302

Satellite: NOAA-11
Catalog number: 19531
Epoch time:      10350.25925473
Element set:     325
Inclination:      098.7623 deg
RA of node:       076.1306 deg
Eccentricity:    0.0011263
Arg of perigee:   354.7207 deg
Mean anomaly:     005.3834 deg
Mean motion:   14.14898014 rev/day
Decay rate:      -2.56e-06 rev/day^2
Epoch rev:           14688
Checksum:              290

Satellite: NOAA-12
Catalog number: 21263
Epoch time:      10350.33529507
Element set:     814
Inclination:      098.7601 deg
RA of node:       003.4265 deg
Eccentricity:    0.0012418
Arg of perigee:   002.6195 deg
Mean anomaly:     357.5042 deg
Mean motion:   14.25673635 rev/day
Decay rate:        4.4e-07 rev/day^2
Epoch rev:            1835
Checksum:              267

Satellite: MET-3/5
Catalog number: 21655
Epoch time:      10349.59365949
Element set:    0989
Inclination:      082.5552 deg
RA of node:       180.4721 deg
Eccentricity:    0.0012489
Arg of perigee:   256.1485 deg
Mean anomaly:     103.8296 deg
Mean motion:   13.17024322 rev/day
Decay rate:        5.1e-07 rev/day^2
Epoch rev:           92955
Checksum:              326

Satellite: MET-2/21
Catalog number: 22782
Epoch time:      10350.88287236
Element set:     966
Inclination:      082.5471 deg
RA of node:       107.5200 deg
Eccentricity:    0.0020958
Arg of perigee:   249.4060 deg
Mean anomaly:     110.4852 deg
Mean motion:   13.83652812 rev/day
Decay rate:       1.12e-06 rev/day^2
Epoch rev:           87334
Checksum:              290

Satellite: OKEAN-4
Catalog number: 23317
Epoch time:      10350.78417804
Element set:     421
Inclination:      082.5394 deg
RA of node:       183.4204 deg
Eccentricity:    0.0022428
Arg of perigee:   004.5022 deg
Mean anomaly:     355.6398 deg
Mean motion:   14.82909652 rev/day
Decay rate:       3.61e-06 rev/day^2
Epoch rev:           87351
Checksum:              288

Satellite: NOAA-14
Catalog number: 23455
Epoch time:      10350.37757619
Element set:     305
Inclination:      098.8668 deg
RA of node:       069.7366 deg
Eccentricity:    0.0010275
Arg of perigee:   079.3734 deg
Mean anomaly:     280.8587 deg
Mean motion:   14.13803856 rev/day
Decay rate:        4.5e-07 rev/day^2
Epoch rev:           82324
Checksum:              332

Satellite: NOAA-15
Catalog number: 25338
Epoch time:      10350.52165938
Element set:     634
Inclination:      098.6385 deg
RA of node:       334.3537 deg
Eccentricity:    0.0009768
Arg of perigee:   264.1414 deg
Mean anomaly:     095.8655 deg
Mean motion:   14.24871405 rev/day
Decay rate:      -1.20e-06 rev/day^2
Epoch rev:           65471
Checksum:              318

Satellite: RESURS
Catalog number: 25394
Epoch time:      10349.60460391
Element set:     675
Inclination:      098.2993 deg
RA of node:       357.7543 deg
Eccentricity:    0.0002374
Arg of perigee:   058.6715 deg
Mean anomaly:     301.4690 deg
Mean motion:   14.24218688 rev/day
Decay rate:     -.00000000 rev/day^2
Epoch rev:           64617
Checksum:              303

Satellite: FENGYUN1
Catalog number: 25730
Epoch time:      10350.47012989
Element set:     209
Inclination:      098.8031 deg
RA of node:       310.8466 deg
Eccentricity:    0.0020754
Arg of perigee:   104.7013 deg
Mean anomaly:     255.6459 deg
Mean motion:   14.08474453 rev/day
Decay rate:       7.32e-06 rev/day^2
Epoch rev:           59734
Checksum:              294

Satellite: OKEAN-0
Catalog number: 25860
Epoch time:      10349.77492886
Element set:    0178
Inclination:      097.8590 deg
RA of node:       316.5614 deg
Eccentricity:    0.0000832
Arg of perigee:   104.2641 deg
Mean anomaly:     255.8662 deg
Mean motion:   14.73692466 rev/day
Decay rate:       1.10e-06 rev/day^2
Epoch rev:           61364
Checksum:              314

Satellite: NOAA-16
Catalog number: 26536
Epoch time:      10350.54717423
Element set:     112
Inclination:      099.1601 deg
RA of node:       012.2183 deg
Eccentricity:    0.0010692
Arg of perigee:   182.1045 deg
Mean anomaly:     178.0087 deg
Mean motion:   14.12590669 rev/day
Decay rate:       2.86e-06 rev/day^2
Epoch rev:           52757
Checksum:              283

